Regional Weather Roundup
Issued by NWS Wakefield, VA

Home | Current Version | Previous Version | Graphics & Text | Print | Product List | Glossary On
Versions: 1 2 3 4 5 6 7 8 9 10 11 12 13 14 15 16 17 18 19 20 21 22 23 24 25 26 27 28 29 30 31 32 33 34 35 36 37 38 39 40 41 42 43 44 45 46 47 48 49 50
000
ASUS41 KAKQ 282115
RWRAKQ

REGIONAL WEATHER ROUNDUP
NATIONAL WEATHER SERVICE WAKEFIELD VA
500 PM EDT WED JUN 28 2017

Note: "fair" indicates few or no clouds below 12,000 feet with no
significant weather and/or obstructions to visibility. * = Denotes
station may not report precipitation (e.g., rain,snow,etc.),
thunder or fog.

VAZ042-051-052>054-056-282200-
NORTHERN VIRGINIA

CITY           SKY/WX    TMP DP  RH WIND       PRES   REMARKS
WASH NATIONAL  PTSUNNY   82  47  29 W5        30.15F
DULLES         PTSUNNY   79  49  34 VRB3      30.15F
FORT BELVOIR   PTSUNNY   81  49  32 S9        30.15F
QUANTICO       PTSUNNY   80  53  39 S8        30.16F
FREDERICKSBRG* SUNNY     81  52  36 S9        30.15F
STAFFORD*      SUNNY     80  47  32 SW5       30.19F
WARRENTON      MOSUNNY   80  45  28 SE5       30.15S
CULPEPER*      MOSUNNY   81  53  37 S6        30.16S
MANASSAS*      SUNNY     80  51  36 VRB6      30.16F
LEESBURG*      SUNNY     81  52  36 N3        30.16F
WINCHESTER     SUNNY     77  46  33 SW3       30.15S
FRONT ROYAL*   CLEAR     79  50  36 SW5       30.15S
LURAY*         CLEAR     79  50  36 SW5       30.16F
$$

VAZ048-049-060>072-079>083-282200-
CENTRAL AND SOUTH CENTRAL VIRGINIA

CITY           SKY/WX    TMP DP  RH WIND       PRES   REMARKS
RICHMOND       MOSUNNY   79  50  36 S7        30.16F
CHESTERFIELD*  NOT AVBL
PETERSBURG*    SUNNY     79  47  31 CALM      30.18S
HANOVER        SUNNY     80  48  32 MISG      30.17F
TAPPAHANNOCK*  SUNNY     80  36  21 S3        30.18S
QUINTON*       FAIR      79  53  39 E3        30.17F
CHARLOTTSVILLE SUNNY     80  52  37 VRB5      30.17R
GORDONSVILLE*  CLEAR     80  50  34 S5        30.16R
ORANGE*        SUNNY     79  48  34 CALM      30.16S
LOUISA*        SUNNY     82  54  36 S5        30.16S
BUMPASS*       MOCLDY    78  51  39 SW8       30.17S
FARMVILLE*     SUNNY     81  36  19 CALM      30.16S
CREWE*         FAIR      80  42  26 S5        30.17F
FORT PICKETT*  FAIR     N/A N/A N/A S5        30.17F
CHASE CITY*    FAIR      80  52  38 CALM      30.17F
CLARKSVILLE*   FAIR      79  54  41 CALM      30.17F
SOUTH HILL*    SUNNY     79  52  38 CALM      30.22F
LAWRENCEVILLE* FAIR      80  51  35 SE6       30.17F
EMPORIA*       SUNNY     81  46  30 CALM      30.18F
$$

VAZ088>098-282200-
SOUTHEAST VIRGINIA

CITY           SKY/WX    TMP DP  RH WIND       PRES   REMARKS
NORFOLK        SUNNY     80  53  39 E9        30.18F
VIRGINIA BEACH MOSUNNY   75  53  46 E9        30.18F
NORFOLK NAVAL  MOSUNNY   79  52  38 NE9       30.19F
WEST POINT*    SUNNY     80  46  30 CALM      30.19F
SALUDA*        FAIR      77  56  49 E9        30.18F
NEWPORT NEWS   SUNNY     79  54  41 E12       30.18F
LANGLEY AFB    MOSUNNY   77  58  51 E10       30.18S
FORT EUSTIS    SUNNY     85  56  37 E5        30.15F
WILLIAMSBURG*  SUNNY     82  50  32 CALM      30.18F
HR EXEC AP*    FAIR      81  55  41 SE7       30.15S
FRANKLIN*      NOT AVBL
US460-WAKEFLD  SUNNY     82  52  35 CALM      30.17F
$$

VAZ020-022-025-037-045-282200-
WEST CENTRAL AND SOUTHWEST VIRGINIA

CITY           SKY/WX    TMP DP  RH WIND       PRES   REMARKS
STAUNTON*      CLOUDY    77  50  38 S5        30.19S
WAYNESBORO*    CLEAR     76  49  39 CALM      30.19S
HOT SPRINGS VA CLOUDY    70  32  24 W10       30.27F
LYNCHBURG      SUNNY     78  48  34 W3        30.18S
DANVILLE       SUNNY     79  54  41 CALM      30.17F
SOUTH BOSTON*  FAIR      81  48  32 CALM      30.17F
MARTINSVILLE   CLOUDY    80  55  41 CALM      30.20S
ROANOKE        MOSUNNY   80  45  28 SW3       30.19S
BLACKSBURG     SUNNY     78  50  38 CALM      30.23S
DUBLIN*        SUNNY     80  39  22 E5        30.21S
MARION*        SUNNY     78  47  33 NW3       30.23F
HILLSVILLE*    MOSUNNY   73  50  43 CALM      30.22S
RICHLANDS*     FAIR      77  50  38 SW7       30.22S
WISE*          MOSUNNY   77  52  41 CALM      30.21F
ABINGDON*      SUNNY     81  45  27 W3        30.18F
$$

MDZ021>025-VAZ099-100-282200-
SOUTHERN MARYLAND AND THE DELMARVA PENINSULA

CITY           SKY/WX    TMP DP  RH WIND       PRES   REMARKS
PATUXENT RIVER PTSUNNY   75  53  46 SE10      30.17F
BAY BRIDGE APT SUNNY     81  50  34 SE10      30.16S
LEONARDTOWN    PTSUNNY   77  50  38 SW12      30.18F
DOVER          SUNNY     79  53  40 W6        30.15S
GEORGETOWN     SUNNY     80  45  28 N5        30.17F
EASTON         NOT AVBL
CAMBRIDGE      SUNNY     79  50  36 CALM      30.17S
SALISBURY      SUNNY     78  46  32 W8        30.17F
OCEAN CITY     SUNNY     71  59  65 VRB6      30.19F
WALLOPS ISLAND MOSUNNY   76  58  53 S9        30.18F
ACCOMACK*      SUNNY     78  45  31 NW6       30.19F
$$

NCZ012>017-030>032-282200-
NORTH CENTRAL AND EASTERN NORTH CAROLINA

CITY           SKY/WX    TMP DP  RH WIND       PRES   REMARKS
ROANOKE RAPIDS FAIR      81  52  36 CALM      30.17F
RALEIGH        MOSUNNY   83  52  34 E7        30.17F
ELIZABETH CITY SUNNY     79  60  52 E9        30.18F
AHOSKIE*         N/A     79  51  36 NE3       30.17F
EDENTON*       SUNNY     81  62  51 CALM      30.18F
CURRITUCK*     SUNNY     77  56  47 E7        30.20S
KILL DEVIL HLS SUNNY     75  58  56 NE5       30.19S
MANTEO         SUNNY     75  60  59 E12       30.20S
CAPE HATTERAS  NOT AVBL
TARBORO*       NOT AVBL
GOLDSBORO      SUNNY     84  50  30 N3        30.15F
WASHINGTON     SUNNY    N/A N/A N/A CALM      30.17S
GREENVILLE     SUNNY     84  54  34 CALM      30.17F
NEW BERN       SUNNY     83  54  36 NE5       30.17F
WILMINGTON     SUNNY     84  55  36 E9        30.15F
$$

VAZ048-282200-
ELSEWHERE

CITY           SKY/WX    TMP DP  RH WIND       PRES   REMARKS
HARRISBURG PA  PTSUNNY   80  51  36 W6        30.11F
BALTIMORE      MOSUNNY   80  43  26 S6        30.14F
ANNAPOLIS      SUNNY     74  56  53 SE14      30.16S
ANDREWS AFB    SUNNY     80  47  30 CALM      30.14F
PHILADELPHIA   PTSUNNY   79  46  31 SW9       30.14S
HENDERSON NC   SUNNY     77  50  38 N3        30.18F
GREENSBORO     PTSUNNY   80  58  46 NE8       30.16F
ROCKY MOUNT    SUNNY     82  51  34 NW3       30.17F
$$

VAZ100-282200-
MARINE

STATION/POSITION TIME  TEMP    WIND        PRES    WAVE   SWELL
                       AIR SEA DIR/SP/G            HT/PER HT/PER
                 (UTC) (F)     (DEG/KT/KT) (MB)    (FT/S) (FT/S)
BRANDYWINE LGT   2048          190/  4/  5   N/A
CAPE MAY NJ      2048   74 71  230/  5/  6 1021.3S
LEWES DE         2048   74 72  150/ 10/ 13 1021.5F
15NM E FENWICK I 2050   70 71  180/  8/ 10 1022.7S   1/12
OCEAN-CITY-INLET 2048   71 66  180/  6/  9 1022.6F
WACHAPREAGUE VA  2048   78 81  320/  5/  8 1022.1F
THOMAS POINT MD  2100   75 78  160/ 10/ 12   N/A
GOOSES REEF MD   2050   75     150/ 12/ 16 1022.3F
COVE POINT MD    2048   73     180/ 13/ 15 1022.3F
SOLOMONS ISLAND  2048   74 79  130/ 11/ 15   N/A
BISHOPS HEAD MD  2048   74 83  240/ 11/ 13 1022.0F
PINEY POINT MD   2042          160/  7/  8   N/A
POTOMAC MD       2050   75     160/  6/ 10 1021.1F
CAMBRIDGE MD     2042   80 83              1022.4F
LEWISETTA VA     2048   75 79  130/  8/ 11 1021.8F
RAPPAHANNOCK LGT 2042           30/  2/  3 1023.1F
STINGRAY PT      2050   74     160/  8/ 10 1022.5F
YORK RVR RNG VA  2048   75     100/  7/  9 1022.5F
YORKTOWN VA      2048   75 79   80/  9/ 10 1021.8F
JAMESTOWN VA     2050   78     320/  4/  6   N/A
DOMINION TERM VA 2048   75      70/  7/ 12 1022.1F
KIPTOPEKE VA     2042      74  250/  1/  4   N/A
CHES BAY BRIDGE  2048   73 74  120/  8/ 12 1022.2F
CAPE HENRY VA    2048   73     110/  9/ 11   N/A
WILLOUBY STN VA  2048   73     100/ 11/ 13 1021.9F
S CRANEY ISL VA  2048   76      60/  5/  7 1021.8F
CAPE HENRY BUOY  2030      74                N/A     2/ 5
1ST LANDING BUOY 2050   73                 1022.3F
CAPE CHARLES BUO 2051      72                N/A     1/ 8
64NM E OF VA BCH 2050   71 74   10/  8/ 10 1023.5R   2/ 5   2/ 5
DUCK PIER NC     2048   72 73   60/ 11/ 12 1022.1F
44100 DUCK FRF   2005      74                N/A     2/ 5
OREGON INLET NC  2048           20/  9/ 12   N/A
HATTERAS NC      2048   79 78   30/  5/  9 1021.7S
DIAMOND SHLS NC  2050   78 83   40/  8/ 10 1021.5F   3/ 6   2/ 6
CAPE LOOKOUT NC  2000   79      60/ 12/ 14 1021.3F
$$



USA.gov is the U.S. government's official web portal to all federal, state and local government web resources and services.